Terminal Aerodrome Forecast
Issued by NWS

Home | Current Version | Previous Version | Text Only | Print | Product List | Glossary On
Versions: 1 2 3 4 5 6 7 8 9 10 11 12 13 14 15 16 17 18
000
FTUS43 KDTX 302320
TAFDET
TAF
KDET 302320Z 3100/3124 VRB04KT P6SM SCT040
     FM311000 VRB03KT 3SM BR SKC
     FM311600 25005KT P6SM FEW045=

USA.gov is the U.S. government's official web portal to all federal, state and local government web resources and services.